CZ-6A DEB, 56666

Orbit data source: Space-Track

CZ-6A DEB, 56666 is space debris in SSO originally from a launch on Fri, 11 Nov 2022 UTC launched from the Taiyaun Space Center, China (TSC). Debris objects in space refer to the collection of defunct objects orbiting the Earth. Examples of debris include non-operational satellites, rocket bodies, and fragments generated from explosions, collisions, or faulty payload assembly.

Loading next visibility...
Identifier
56666, 2022-151AGS
Orbit
SSO
Country
Flag of CNCN / PRC
Related business
Manufacturer
SAST
Mission
Spacecraft
Bus & Motor
Unknown
Mass
Unknown
Launch date (UTC)
2022-11-11 (4 years ago)
Launch vehicle
Unknown
Launch site
Taiyaun Space Center, China (TSC)
Object type
Payload
Rocket body
Debris
Shape & HBR
Unknown shape, 0.1 m
Radar Cross Section
Small (<0.1 m²)

Expand to show TLE details & history
Last TLE update: 2 days ago

TLE from 2 days ago
0 CZ-6A DEB
1 56666U 22151AGS 26171.43286167  .00001449  00000-0  42146-3 0  9992
2 56666  98.7309 232.0292 0072336 275.1254  84.1683 14.44385358165865
Epoch: 2026-06-20T10:23Z
TLE epoch observation values (Epoch: 2026-06-20T10:23:19.248Z)
Latitude
-0°
Longitude
167.55144°
Altitude
742.127 km
Speed
7.486 km/s
True Right ascension
15h 28m 07s
True Declination
0° 00' 00"
Sunlit
Object was in full shadow at epoch
Visualization orbit readout
Latitude
Unknown
Longitude
Unknown
Altitude
Unknown
Speed
Unknown
Apparent Right ascension
Unknown
Apparent Declination
Unknown
Sunlit
N/A
Visualization observer readout
Local Sidereal Time
22:00:30
Azimuth
Unknown
Elevation
Unknown
Doppler factor
Unknown
Orbital elements
Apogee altitude
792.671 km
Perigee altitude
689.675 km
Semi-major axis
7,119.31 km
Eccentricity
0.00723
Inclination
98.7309°
RAAN
232.0292°
Arg. of periapsis
275.1254°
True anomaly
84.99365°
Mean anomaly
84.1683°
Eccentric anomaly
84.5809°
Mean motion
3.61315 °/min
Orbital period
99.64 mins
BSTAR
0.00042146
Loading maneuver chart data...
Computing Atmospheric mass density...
Loading historical data...
Loading historical data...
Loading historical data...
Loading historical data...
Loading historical data...
Loading historical data...
Loading historical data...

Documentation

Showing up to 5 results
|